FW0788 Weather Reports


Display with metric or nautical units.
time (UTC)temp
F
wind
direction
speed
MPH
gust
MPH
rain 1hr
in
rain 24hr
in
rain mn
in
humidity
%
barometer
mb
20260502163057 56 300 0.0 0.0 0.00 0.00 0.00 91 1014.3
20260502161551 56 300 0.0 0.0 0.00 0.00 0.00 91 1014.5
20260502151542 54 290 0.0 0.0 0.00 0.00 0.00 92 1015.0
20260502123024 55 289 0.0 0.0 0.00 0.00 0.00 90 1016.1
20260502121527 55 292 0.0 0.0 0.00 0.00 0.00 90 1016.2
20260502114522 57 292 0.0 0.0 0.00 0.00 0.00 89 1016.4
20260502113024 57 292 0.0 0.0 0.00 0.00 0.00 89 1016.3
20260502111521 57 292 0.0 0.0 0.00 0.00 0.00 88 1016.3
20260502110024 58 291 0.0 0.0 0.00 0.00 0.00 89 1016.3
20260502104520 58 291 0.0 0.0 0.00 0.00 0.00 88 1016.4
20260502103021 58 291 0.0 0.0 0.00 0.00 0.00 88 1016.3
20260502101518 58 291 0.0 0.0 0.00 0.00 0.00 88 1016.3
20260502091517 59 291 0.0 0.0 0.00 0.00 0.00 87 1016.2
20260502070100 65 291 0.0 0.0 0.00 0.00 0.00 77 1015.7
20260502064603 65 291 0.0 0.0 0.00 0.00 0.00 75 1015.8
20260502063058 66 291 0.0 0.0 0.00 0.00 0.00 74 1015.7
20260502061556 66 291 0.0 0.0 0.00 0.00 0.00 73 1015.8
20260502060057 67 291 0.0 0.0 0.00 0.00 0.00 71 1015.9
20260502054558 68 291 0.0 0.0 0.00 0.00 0.00 70 1016.0
20260502053109 68 286 0.0 0.0 0.00 0.00 0.00 69 1016.0
20260502051552 69 290 0.0 1.0 0.00 0.00 0.00 67 1016.1
20260502050051 70 284 0.0 0.0 0.00 0.00 0.00 68 1016.1
20260502044550 69 286 0.0 0.0 0.00 0.00 0.00 69 1016.2
20260502043055 69 284 0.0 0.0 0.00 0.00 0.00 70 1016.3
20260502041548 69 267 0.0 0.0 0.00 0.00 0.00 69 1016.4
20260502040048 69 267 0.0 0.0 0.00 0.00 0.00 69 1016.4
20260502034546 69 258 0.0 0.0 0.00 0.00 0.00 70 1016.5
20260502033050 69 281 0.0 0.0 0.00 0.00 0.00 69 1016.6
20260502031544 69 284 0.0 0.0 0.00 0.00 0.00 67 1016.8
20260502030053 69 284 0.0 0.0 0.00 0.00 0.00 67 1017.0
20260502024543 70 274 0.0 0.0 0.00 0.00 0.00 67 1017.2
20260502023052 70 275 0.0 2.0 0.00 0.00 0.00 67 1017.4
20260502021541 70 275 0.0 2.0 0.00 0.00 0.00 66 1017.7
20260502020032 70 298 0.0 1.0 0.00 0.00 0.00 67 1017.9
20260502014534 69 291 0.0 0.0 0.00 0.00 0.00 69 1018.2
20260502013025 69 298 0.0 0.0 0.00 0.00 0.00 69 1018.4
20260502011523 68 294 0.0 0.0 0.00 0.00 0.00 68 1018.7
20260502010021 68 306 0.0 2.0 0.00 0.00 0.00 67 1018.8
20260502004518 68 258 0.0 3.0 0.00 0.00 0.00 72 1019.0
20260502003013 65 239 0.0 0.0 0.00 0.00 0.00 78 1019.2
20260502001510 63 239 0.0 0.0 0.00 0.00 0.00 81 1019.2
20260502000006 62 221 0.0 0.0 0.00 0.00 0.00 81 1019.5
20260501234502 60 212 0.0 0.0 0.00 0.00 0.00 86 1019.6
20260501233059 59 212 0.0 0.0 0.00 0.00 0.00 88 1019.7
20260501231601 58 212 0.0 0.0 0.00 0.00 0.00 91 1019.8
20260501230052 56 212 0.0 0.0 0.00 0.00 0.00 95 1019.9
20260501224551 54 212 0.0 0.0 0.00 0.00 0.00 95 1020.1
20260501223105 51 212 0.0 0.0 0.00 0.00 0.00 95 1020.0
20260501221540 51 212 0.0 0.0 0.00 0.00 0.00 95 1020.1
20260501220038 51 212 0.0 0.0 0.00 0.00 0.00 95 1020.1
20260501214536 50 212 0.0 0.0 0.00 0.00 0.00 95 1019.9
20260501213032 49 212 0.0 0.0 0.00 0.00 0.00 94 1019.7
20260501211529 48 212 0.0 0.0 0.00 0.00 0.00 94 1019.8
20260501210028 48 212 0.0 0.0 0.00 0.00 0.00 94 1020.0
20260501204526 48 212 0.0 0.0 0.00 0.00 0.00 93 1020.0
20260501203039 48 212 0.0 0.0 0.00 0.00 0.00 93 1020.0
20260501201525 48 212 0.0 0.0 0.00 0.00 0.00 93 1020.0
20260501200025 49 212 0.0 0.0 0.00 0.00 0.00 94 1019.9
20260501194523 49 212 0.0 0.0 0.00 0.00 0.00 94 1019.9
20260501193021 48 212 0.0 0.0 0.00 0.00 0.00 94 1019.9
20260501191521 48 212 0.0 0.0 0.00 0.00 0.00 93 1019.8
20260501190023 48 212 0.0 0.0 0.00 0.00 0.00 93 1019.8
20260501184544 48 212 0.0 0.0 0.00 0.01 0.00 93 1019.8
20260501183017 49 212 0.0 0.0 0.00 0.01 0.00 93 1019.8
20260501181515 49 212 0.0 0.0 0.00 0.01 0.00 93 1019.9
20260501180021 49 212 0.0 0.0 0.00 0.01 0.00 93 1019.9
20260501174513 49 212 0.0 0.0 0.00 0.01 0.00 93 1020.0
20260501173011 49 212 0.0 0.0 0.00 0.01 0.00 93 1020.1
20260501171511 49 212 0.0 0.0 0.00 0.01 0.00 93 1020.2